Regional Weather Roundup
Issued by NWS

Home | Current Version | Previous Version | Text Only | Print | Product List | Glossary On
Versions: 1 2 3 4 5 6 7 8 9 10 11 12 13 14 15 16 17 18 19 20 21 22 23 24 25 26 27 28 29 30 31 32 33 34 35 36 37 38 39 40 41 42 43 44 45 46 47 48 49 50
000
ASUS43 KDTX 280010
RWRMI
MICHIGAN HOURLY REGIONAL WEATHER ROUNDUP
NATIONAL WEATHER SERVICE DETROIT/PONTIAC MI
700 PM EST THU NOV 27 2014

NOTE: "FAIR" INDICATES FEW OR NO CLOUDS BELOW 12,000 FEET WITH NO
SIGNIFICANT WEATHER AND/OR OBSTRUCTION TO VISIBILITY.

MIZ047>049-052>055-059>063-066>070-074>076-081>083-280100-
SOUTHEAST LOWER MICHIGAN

CITY           SKY/WX    TMP DP  RH WIND       PRES   REMARKS
ADRIAN         LGT SNOW  28  24  85 N8        30.26R FOG
6HR MIN TEMP:  28; 6HR MAX TEMP:  33; 6HR PCP: TRACE;

ALMA           PTCLDY    22  14  72 NW8       30.30R
ANN ARBOR      CLOUDY    28  19  69 NW9       30.24R
BAD AXE        CLOUDY    24  15  67 NW15G21   30.23S
6HR MIN TEMP:  24; 6HR MAX TEMP:  28;

DETROIT CITY   CLOUDY    31  20  63 N12G20    30.23R
6HR MIN TEMP:  31; 6HR MAX TEMP:  36;

DETROIT        FLURRIES  29  20  69 NW14      30.24R
6HR MIN TEMP:  29; 6HR MAX TEMP:  36; 6HR PCP: TRACE;

FLINT          CLOUDY    28  17  63 NW14      30.25R
6HR MIN TEMP:  28; 6HR MAX TEMP:  33; 6HR PCP: TRACE;

GROSSE ILE     CLOUDY    30  21  69 NW12      30.21S
HILLSDALE      CLOUDY    28  23  83 NW13G20   30.24R
6HR MIN TEMP:  28; 6HR MAX TEMP:  34;

HOWELL         CLOUDY    26  17  67 NW7       30.24R
6HR MIN TEMP:  26; 6HR MAX TEMP:  30;


CITY           SKY/WX    TMP DP  RH WIND       PRES   REMARKS
JACKSON        FLURRIES  26  21  81 NW13      30.26R
6HR MIN TEMP:  26; 6HR MAX TEMP:  31; 6HR PCP:  0.01;

LAMBERTVILLE   PTCLDY    28  27  93 CALM      30.25R
LANSING        CLOUDY    25  15  66 NW13      30.29R
6HR MIN TEMP:  25; 6HR MAX TEMP:  30; 6HR PCP: TRACE;

LAPEER         NOT AVBL
MASON          LGT SNOW  26  20  79 NW15      30.26R
MONROE         PTCLDY    27  23  86 CALM      30.22R
MT. CLEMENS    MIX PCPN  28  19  69 NW9       30.22R
                                      6HR PCP: TRACE;

PONTIAC        FLURRIES  25  16  68 N13       30.21S
6HR MIN TEMP:  25; 6HR MAX TEMP:  30; 6HR PCP: TRACE;

PORT HOPE        N/A     26  15  63 NW16G28   30.21R
6HR MIN TEMP:  26; 6HR MAX TEMP:  30; 6HR PCP:  0.01;

PORT HURON     CLOUDY    27  18  69 NW9G23    30.24R
TRI CITIES     PTCLDY    24  12  60 NW12      30.28R
6HR MIN TEMP:  24; 6HR MAX TEMP:  31;

YPSILANTI      MOCLDY    31  20  63 NW13      30.24R
6HR MIN TEMP:  31; 6HR MAX TEMP:  39; 6HR PCP: TRACE;

$$
MIZ043>046-050>051-056>058-064>065-071>073-077>080-280100-
SOUTHWEST LOWER MICHIGAN

CITY           SKY/WX    TMP DP  RH WIND       PRES   REMARKS
BATTLE CREEK   CLOUDY    26  17  68 N12       30.30R
6HR MIN TEMP:  26; 6HR MAX TEMP:  33; 6HR PCP:  0.01;

BENTON HARBOR  LGT SNOW  25  19  78 VRB7      30.35R
6HR MIN TEMP:  25; 6HR MAX TEMP:  30; 6HR PCP:  0.01;

BIG RAPIDS     CLOUDY    19  14  81 NW6       30.29R
6HR MIN TEMP:  19; 6HR MAX TEMP:  26;

COLDWATER      CLOUDY    27  19  71 NW13G20   30.28R
6HR MIN TEMP:  27; 6HR MAX TEMP:  34;

HOLLAND        FLURRIES  23  18  81 NE6       30.34S
6HR MIN TEMP:  23; 6HR MAX TEMP:  30; 6HR PCP:  0.02;

GRAND RAPIDS   CLOUDY    23  14  68 NW13      30.32R
6HR MIN TEMP:  23; 6HR MAX TEMP:  30; 6HR PCP: TRACE;

KALAMAZOO      CLOUDY    24  18  77 N15       30.32R
6HR MIN TEMP:  24; 6HR MAX TEMP:  32; 6HR PCP:  0.01;

MARSHALL       CLOUDY    24  17  74 NW5       30.28R
MUSKEGON       FLURRIES  22  13  68 N8        30.35R
6HR MIN TEMP:  22; 6HR MAX TEMP:  27; 6HR PCP: TRACE;

$$
MIZ016>042-280100-
NORTHERN LOWER MICHIGAN

CITY           SKY/WX    TMP DP  RH WIND       PRES   REMARKS
ALPENA         MOCLDY    17   9  70 W9G17     30.23S
6HR MIN TEMP:  17; 6HR MAX TEMP:  24; 6HR PCP: TRACE;

BEAVER ISLAND  MOCLDY    19   8  62 NW10      30.30R
6HR MIN TEMP:  19; 6HR MAX TEMP:  23;

BELLAIRE       CLOUDY    20  14  76 N7        30.29S
CADILLAC       CLOUDY    16  12  82 W9        30.24S
CHARLEVOIX     CLOUDY    19  10  67 NW17G25   30.32S
6HR MIN TEMP:  19; 6HR MAX TEMP:  22;

FRANKFORT      FLURRIES  20  12  70 NW8       30.33S
GAYLORD        FLURRIES  15  10  80 VRB5      30.21R
6HR MIN TEMP:  15; 6HR MAX TEMP:  21; 6HR PCP: TRACE;

GRAYLING       CLOUDY    17  12  83 NW7       30.24R
6HR MIN TEMP:  17; 6HR MAX TEMP:  22;

HARBOR SPRINGS CLOUDY    18   8  63 NW12      30.27S
HOUGHTON LAKE  FLURRIES  17  12  80 W12       30.24R
6HR MIN TEMP:  17; 6HR MAX TEMP:  23; 6HR PCP: TRACE;

MANISTEE       MOCLDY    21   9  58 NW9       30.33S
OSCODA         CLOUDY    20  11  68 NW8       30.24R
PELLSTON       MOCLDY    18   7  62 NW15      30.27S
6HR MIN TEMP:  17; 6HR MAX TEMP:  21; 6HR PCP: TRACE;

TRAVERSE CITY  FLURRIES  21  11  65 W15       30.30R
6HR MIN TEMP:  20; 6HR MAX TEMP:  24; 6HR PCP: TRACE;

$$
MIZ007>008-015-280100-
EASTERN UPPER MICHIGAN

CITY           SKY/WX    TMP DP  RH WIND       PRES   REMARKS
KINROSS        CLOUDY    16  14  93 W10       30.23R
6HR MIN TEMP:  16; 6HR MAX TEMP:  21;

MACKINAC ISLAN MOCLDY    16  11  80 NW9G18    30.25S
6HR MIN TEMP:  16; 6HR MAX TEMP:  22;

NEWBERRY       MOCLDY    10   6  85 W6        30.26S
6HR MIN TEMP:   8; 6HR MAX TEMP:  17;

S. S. MARIE    CLOUDY    14   7  73 N7        30.21F
6HR MIN TEMP:  14; 6HR MAX TEMP:  19; 6HR PCP:  0.01;

$$
MIZ004>006-011>014-085-280100-
CENTRAL UPPER MICHIGAN

CITY           SKY/WX    TMP DP  RH WIND       PRES   REMARKS
MANISTIQUE     FLURRIES  11   8  87 W9        30.31S
ESCANABA       PTCLDY     9   0  66 NW7       30.34F
6HR MIN TEMP:   9; 6HR MAX TEMP:  18;

MENOMINEE      CLEAR      9   0  66 CALM      30.36R
6HR MIN TEMP:   9; 6HR MAX TEMP:  18;

SAWYER-GWINN   CLEAR      5  -2  72 W7        30.29F
$$
MIZ001>003-009>011-084-280100-
WESTERN UPPER MICHIGAN

CITY           SKY/WX    TMP DP  RH WIND       PRES   REMARKS
IRON MOUNTAIN  CLEAR      3  -3  76 N3        30.31R
6HR MIN TEMP:   1; 6HR MAX TEMP:  14;

HOUGHTON       FLURRIES   8   2  76 W9        30.29F
6HR MIN TEMP:   8; 6HR MAX TEMP:  12; 6HR PCP:  0.01;

COPPER HARBOR    N/A     15   6  67 VRB6G18   30.32F
6HR MIN TEMP:  14; 6HR MAX TEMP:  17;

IRONWOOD       CLEAR     -2  -9  71 CALM      30.30F
6HR MIN TEMP:  -2; 6HR MAX TEMP:  10;

$$

ABBREVIATIONS USED IN REMARKS
   TC - TEMPERATURE IN CELSIUS
  WCI - WIND CHILL INDEX
   HX - HEAT INDEX
  VSB - VISIBILITY




USA.gov is the U.S. government's official web portal to all federal, state and local government web resources and services.